Flag for Japan Weather past 2 weeks in Minamisōma, Japan

Now
54 °F

Cool.


Feels Like: 53 °F
Forecast: 51 / 72 °F
Wind: 5 mph from Northwest

Location: Sendai

Current Time: Oct 26, 2014 at 2:05:30 AM

Latest Report: Oct 26, 2014 at 1:00 AM


Visibility: N/A

Pressure: 30.19 "Hg

Humidity: 90%

Dew point: 51 °F

Location of MinamisōmaLocation

Historic Weather in Minamisōma — Graph

°F

Minamisōma temperature yesterday

Maximum temperature yesterday: 67 °F (at 12:00 PM)
Minimum temperature yesterday: 46 °F (at 6:00 AM)
Average temperature yesterday: 56 °F

Past Weeks' High & Low Weather Summary

 TemperatureHumidityPressure
High71 °F (Oct 11, 2:00 PM)100% (Oct 13, 8:00 PM)30.37 "Hg (Oct 13, 8:00 PM)
Low46 °F (Oct 25, 6:00 AM)26% (Oct 18, 3:00 PM)29.09 "Hg (Oct 14, 5:00 AM)
Average59 °F72%30.08 "Hg
* Reported Midnight between Oct 10 and Oct 11 — Midnight between Oct 25 and Oct 26, Minamisōma, Weather by CustomWeather, © 2014

Note: Actual official high and low records may vary slightly from our data, if they occured in-between our weather recording intervals... More about our weather records

Advertising

Minamisōma weather history for previous 24 hours

 ConditionsComfort  
Time TempWeatherWind HumidityBarometerVisibility
12:00 AM
Oct 26
54 °FCool.7 mph90%30.19 "HgN/A
11:00 PM
Oct 25
55 °FCool.7 mph91%30.20 "HgN/A
10:00 PM56 °FCool.5 mph80%30.20 "HgN/A
9:00 PM58 °FPassing clouds.3 mph81%30.21 "Hg6 mi
8:00 PM59 °FCool.3 mph87%30.21 "HgN/A
7:00 PM58 °FCool.1 mph94%30.21 "HgN/A
6:00 PM59 °FClear.5 mph89%30.20 "Hg6 mi
5:00 PM60 °FCool.6 mph83%30.19 "HgN/A
4:00 PM62 °FMild.7 mph77%30.18 "HgN/A
3:00 PM64 °FSunny.9 mph73%30.17 "Hg12 mi
2:00 PM66 °FMild.7 mph68%30.17 "HgN/A
1:00 PM65 °FMild.8 mph63%30.17 "HgN/A
12:00 PM67 °FSunny.7 mph54%30.19 "Hg12 mi
11:00 AM64 °FMild.5 mph57%30.21 "HgN/A
10:00 AM62 °FCool.6 mph62%30.23 "HgN/A
9:00 AM56 °FSunny.1 mph72%30.24 "Hg9 mi
8:00 AM51 °FCool.3 mph84%30.25 "HgN/A
7:00 AM47 °FCool.7 mph91%30.24 "HgN/A
6:00 AM46 °FPassing clouds.5 mph92%30.22 "Hg9 mi
5:00 AM47 °FCool.2 mph92%30.22 "HgN/A
4:00 AM48 °FCool.5 mph90%30.21 "HgN/A
3:00 AM48 °FClear.2 mph93%30.21 "Hg9 mi
2:00 AM50 °FCool.3 mph91%30.21 "HgN/A
Weather by CustomWeather, © 2014

See weather overviewHow to use our weather pages